Weather History for Whidbey Island, WA

Change the Weather History Date:

Monday, July 23, 2012

  Actual Average Record
Temperature  
Mean Temperature 56 °F -  
Max Temperature 61 °F 64 °F 82 °F (2006)
Min Temperature 52 °F 49 °F 48 °F (1997)
Degree Days  
Heating Degree Days 9    
Growing Degree Days 6 (Base 50)    
Moisture  
Dew Point 50 °F    
Average Humidity 82    
Maximum Humidity 89    
Minimum Humidity 72    
Precipitation  
Precipitation 0.01 in - - ()
Sea Level Pressure  
Sea Level Pressure 30.21 in    
Wind  
Wind Speed 9 mph (South)    
Max Wind Speed 16 mph    
Max Gust Speed 22 mph    
Visibility 9 miles    
Events Rain    
Averages and records for this station are not official NWS values.
T = Trace of Precipitation, MM = Missing Value Source: NWS Daily Summary

Daily Weather History Graph

Daily Weather History Graph

Search for Another Location

Airport:

Trip Planner

Search our weather history database for the weather conditions in past years. The results will help you decide how hot, cold, wet, or windy it might be!

Date:

Astronomy

Jul. 23, 2012 Rise Set
Actual Time 5:35 AM PDT 8:58 PM PDT
Civil Twilight 4:56 AM PDT 9:36 PM PDT
Nautical Twilight 4:06 AM PDT 10:26 PM PDT
Astronomical Twilight 2:59 AM PDT 11:32 PM PDT
Moon 11:02 AM PDT (7/23) 10:43 PM PDT (7/23)
Length of Visible Light 16h 39m
Length of Day
15h 23m
Waxing Crescent, 23% of the Moon is Illuminated
Jul 23
Waxing Crescent
Jul 26
First Quarter
Aug 1
Full
Aug 9
Last Quarter
Aug 17
New

Hourly Weather History & Observations

Time (PDT) Temp. Dew Point Humidity Pressure Visibility Wind Dir Wind Speed Gust Speed Precip Events Conditions
12:56 AM 53.1 °F 48.0 °F 83% 30.15 in 10.0 mi WSW 16.1 mph - N/A   Mostly Cloudy
1:56 AM 52.0 °F 48.0 °F 86% 30.15 in 10.0 mi WSW 11.5 mph - N/A   Mostly Cloudy
2:56 AM 53.1 °F 48.0 °F 83% 30.16 in 10.0 mi SW 11.5 mph - N/A   Overcast
3:56 AM 54.0 °F 48.9 °F 83% 30.17 in 10.0 mi SSE 6.9 mph - N/A   Overcast
4:07 AM 53.6 °F 48.2 °F 82% 30.16 in 9.0 mi South 8.1 mph - 0.00 in Rain Light Rain
4:56 AM 54.0 °F 50.0 °F 86% 30.18 in 9.0 mi South 9.2 mph - 0.00 in Rain Light Rain
5:56 AM 53.1 °F 50.0 °F 89% 30.18 in 8.0 mi SSE 11.5 mph - 0.01 in Rain Light Rain
6:56 AM 54.0 °F 50.0 °F 86% 30.18 in 6.0 mi SSE 10.4 mph - 0.00 in Rain Light Rain
7:20 AM 53.6 °F 50.0 °F 88% 30.17 in 7.0 mi SSE 10.4 mph - 0.00 in   Mostly Cloudy
7:56 AM 54.0 °F 50.0 °F 86% 30.18 in 7.0 mi SSE 15.0 mph - 0.00 in   Mostly Cloudy
8:56 AM 55.0 °F 50.0 °F 83% 30.21 in 9.0 mi SSE 13.8 mph 21.9 mph N/A   Overcast
9:18 AM 55.4 °F 50.0 °F 82% 30.19 in 9.0 mi South 11.5 mph 18.4 mph N/A   Overcast
9:56 AM 55.0 °F 50.0 °F 83% 30.22 in 9.0 mi SSE 11.5 mph - N/A   Overcast
10:56 AM 55.0 °F 48.9 °F 80% 30.23 in 8.0 mi SSE 11.5 mph - N/A   Overcast
11:56 AM 55.9 °F 50.0 °F 80% 30.24 in 9.0 mi SSE 13.8 mph - N/A   Overcast
12:48 PM 59.0 °F 51.8 °F 77% 30.24 in 10.0 mi SSE 8.1 mph - N/A   Overcast
12:56 PM 59.0 °F 52.0 °F 78% 30.25 in 10.0 mi South 6.9 mph - N/A   Overcast
1:11 PM 59.0 °F 51.8 °F 77% 30.24 in 10.0 mi SSE 6.9 mph - N/A   Overcast
1:56 PM 60.1 °F 52.0 °F 75% 30.26 in 10.0 mi Calm Calm - N/A   Overcast
2:08 PM 60.8 °F 51.8 °F 72% 30.25 in 10.0 mi Calm Calm - N/A   Overcast
2:56 PM 59.0 °F 51.1 °F 75% 30.26 in 9.0 mi Calm Calm - N/A   Overcast
3:56 PM 55.9 °F 50.0 °F 80% 30.26 in 10.0 mi West 3.5 mph - N/A   Overcast
4:56 PM 55.9 °F 50.0 °F 80% 30.25 in 10.0 mi WSW 4.6 mph - N/A   Overcast
5:56 PM 55.9 °F 51.1 °F 84% 30.25 in 10.0 mi West 4.6 mph - N/A   Overcast
6:56 PM 55.0 °F 50.0 °F 83% 30.24 in 10.0 mi Calm Calm - N/A   Overcast
7:56 PM 54.0 °F 50.0 °F 86% 30.24 in 10.0 mi Calm Calm - N/A   Overcast
8:56 PM 53.1 °F 48.9 °F 86% 30.23 in 10.0 mi Calm Calm - N/A   Overcast
9:56 PM 53.1 °F 48.9 °F 86% 30.24 in 10.0 mi SW 3.5 mph - N/A   Overcast
10:56 PM 53.1 °F 48.9 °F 86% 30.22 in 10.0 mi Calm Calm - N/A   Mostly Cloudy
11:56 PM 53.1 °F 48.9 °F 86% 30.22 in 10.0 mi Calm Calm - N/A   Overcast